Location: Pic du Midi - T1M
(42.9366°N, 0.1426°E)
Time: 05:37:52
(UTC+01:00)

N. Korean satellite - Visible Passes

Search period start: 25 September 2022 00:00
Search period end: 05 October 2022 00:00
Orbit: 428 x 468 km, 97.3° (Epoch: 24 September)

Date Brightness Start Highest point End Pass type
(mag) Time Alt. Az. Time Alt. Az. Time Alt. Az.
25 Sep 6.3 06:21:24 10° N 06:24:41 84° WNW 06:27:56 10° SSW visible
26 Sep 8.6 05:46:08 10° NE 05:49:02 28° E 05:51:54 10° SSE visible
27 Sep 10.1 05:12:56 10° E 05:13:10 10° E 05:13:24 10° E visible
28 Sep 7.0 06:07:17 10° NNE 06:10:31 58° ESE 06:13:42 10° S visible
29 Sep 9.4 05:32:17 10° NE 05:34:41 19° E 05:37:04 10° SE visible
01 Oct 8.1 05:52:57 10° NNE 05:56:00 35° E 05:59:01 10° SSE visible
02 Oct 9.8 05:18:34 10° ENE 05:20:01 12° E 05:21:26 10° ESE visible
03 Oct 6.5 06:13:51 10° NNE 06:17:07 74° ESE 06:20:21 10° S visible
04 Oct 9.0 05:38:31 10° NE 05:41:09 22° E 05:43:48 10° SSE visible
